EWG5YZ EDDH-EDDS

Flight info

Callsign EWG5YZ
Flight time 0h 58m
Altitude 35000
Route IDEKO8C/05 IDEKO N850 NIE DCT BERXO DCT SILWE DCT OSBIT P605 TOSTU T726 LBU
Aircraft A20N/M-SDE2E3FGHIRWXY/LB1

Departure

Time 2026-05-07 14:23
Airport Hamburg Helmut Schmidt Airport (EDDH)

Arrival

Time 2026-05-07 15:22
Airport Stuttgart Airport (EDDS)
Time Latitude Longitude Altitude Speed Heading
2026-05-07 14:04 53.62806 10.00243 40 ft 0 kts 63°
2026-05-07 14:16 53.62805 10.00238 40 ft 0 kts 63°
2026-05-07 14:17 53.62802 10.00229 40 ft 2 kts 63°
2026-05-07 14:17 53.62795 10.00207 40 ft 2 kts 63°
2026-05-07 14:17 53.62790 10.00190 39 ft 0 kts 63°
2026-05-07 14:17 53.62783 10.00170 39 ft 2 kts 40°
2026-05-07 14:18 53.62772 10.00159 39 ft 2 kts 22°
2026-05-07 14:18 53.62758 10.00153 39 ft 2 kts 358°
2026-05-07 14:18 53.62744 10.00157 40 ft 0 kts 336°
2026-05-07 14:18 53.62738 10.00162 40 ft 1 kts 332°
2026-05-07 14:19 53.62737 10.00164 40 ft 0 kts 333°
2026-05-07 14:21 53.62751 10.00152 39 ft 5 kts 333°
2026-05-07 14:21 53.62794 10.00114 38 ft 8 kts 333°
2026-05-07 14:22 53.62851 10.00044 36 ft 9 kts 298°
2026-05-07 14:22 53.62843 9.99960 34 ft 8 kts 240°
2026-05-07 14:22 53.62814 9.99858 33 ft 6 kts 252°
2026-05-07 14:22 53.62837 9.99774 31 ft 9 kts 321°
2026-05-07 14:23 53.62959 9.99665 29 ft 47 kts 333°
2026-05-07 14:23 53.63483 9.99212 35 ft 118 kts 334°
2026-05-07 14:23 53.64377 9.98443 144 ft 163 kts 335°
2026-05-07 14:23 53.65411 9.97558 727 ft 169 kts 336°
2026-05-07 14:24 53.66485 9.96667 1396 ft 175 kts 338°
2026-05-07 14:24 53.67557 9.95751 2074 ft 179 kts 337°
2026-05-07 14:24 53.68711 9.94761 2560 ft 195 kts 337°
2026-05-07 14:24 53.69982 9.93684 3071 ft 211 kts 335°
2026-05-07 14:25 53.71118 9.91965 3571 ft 235 kts 303°
2026-05-07 14:25 53.71527 9.89263 4194 ft 252 kts 266°
2026-05-07 14:25 53.70995 9.86354 4722 ft 271 kts 244°
2026-05-07 14:25 53.70224 9.83390 5449 ft 281 kts 250°
2026-05-07 14:26 53.69604 9.80296 6337 ft 284 kts 253°
2026-05-07 14:26 53.69033 9.77259 7230 ft 286 kts 253°
2026-05-07 14:26 53.68431 9.74084 8147 ft 288 kts 252°
2026-05-07 14:26 53.67818 9.70902 9063 ft 289 kts 252°
2026-05-07 14:27 53.67187 9.67679 9950 ft 290 kts 252°
2026-05-07 14:27 53.66557 9.64484 10678 ft 296 kts 252°
2026-05-07 14:27 53.65746 9.61179 11108 ft 314 kts 237°
2026-05-07 14:27 53.64163 9.58510 11514 ft 330 kts 212°
2026-05-07 14:28 53.62019 9.57156 12169 ft 337 kts 189°
2026-05-07 14:28 53.59686 9.56718 12968 ft 339 kts 186°
2026-05-07 14:28 53.57338 9.56299 13688 ft 343 kts 187°
2026-05-07 14:28 53.54955 9.55854 14425 ft 346 kts 187°
2026-05-07 14:29 53.52542 9.55390 15161 ft 350 kts 187°
2026-05-07 14:29 53.50104 9.54915 15852 ft 354 kts 187°
2026-05-07 14:29 53.47655 9.54434 16519 ft 357 kts 187°
2026-05-07 14:29 53.45199 9.53953 17202 ft 361 kts 188°
2026-05-07 14:30 53.42699 9.53462 17872 ft 364 kts 188°
2026-05-07 14:30 53.40164 9.52964 18526 ft 367 kts 188°
2026-05-07 14:30 53.37602 9.52460 19160 ft 371 kts 188°
2026-05-07 14:30 53.35033 9.51955 19789 ft 373 kts 188°
2026-05-07 14:31 53.32449 9.51449 20411 ft 376 kts 188°
2026-05-07 14:31 53.29846 9.50940 21012 ft 379 kts 188°
2026-05-07 14:31 53.27242 9.50432 21595 ft 382 kts 187°
2026-05-07 14:31 53.24581 9.49917 22168 ft 385 kts 187°
2026-05-07 14:32 53.21921 9.49403 22721 ft 388 kts 187°
2026-05-07 14:32 53.19236 9.48880 23274 ft 390 kts 188°
2026-05-07 14:32 53.16564 9.48354 23811 ft 393 kts 188°
2026-05-07 14:32 53.13826 9.47815 24350 ft 395 kts 188°
2026-05-07 14:33 53.11102 9.47282 24851 ft 398 kts 188°
2026-05-07 14:33 53.08322 9.46739 25336 ft 401 kts 188°
2026-05-07 14:33 53.05548 9.46199 25800 ft 404 kts 188°
2026-05-07 14:33 53.02748 9.45655 26249 ft 407 kts 188°
2026-05-07 14:34 52.99920 9.45109 26684 ft 410 kts 188°
2026-05-07 14:34 52.97069 9.44529 27104 ft 413 kts 188°
2026-05-07 14:34 52.94177 9.43906 27522 ft 416 kts 188°
2026-05-07 14:34 52.91301 9.43283 27925 ft 419 kts 188°
2026-05-07 14:35 52.88598 9.42699 28291 ft 421 kts 188°
2026-05-07 14:35 52.85536 9.42042 28694 ft 424 kts 188°
2026-05-07 14:35 52.82540 9.41401 29070 ft 426 kts 188°
2026-05-07 14:35 52.79539 9.40764 29435 ft 429 kts 188°
2026-05-07 14:36 52.76568 9.40132 29873 ft 429 kts 188°
2026-05-07 14:36 52.73569 9.39498 30387 ft 428 kts 188°
2026-05-07 14:36 52.70598 9.38876 30871 ft 427 kts 187°
2026-05-07 14:36 52.67600 9.38452 31300 ft 427 kts 184°
2026-05-07 14:37 52.64614 9.38328 31680 ft 426 kts 180°
2026-05-07 14:37 52.58658 9.38985 32370 ft 427 kts 173°
2026-05-07 14:37 52.55720 9.39761 32706 ft 427 kts 169°
2026-05-07 14:38 52.52791 9.40816 33040 ft 427 kts 167°
2026-05-07 14:38 52.49887 9.41915 33368 ft 427 kts 167°
2026-05-07 14:38 52.46989 9.43004 33602 ft 427 kts 167°
2026-05-07 14:38 52.44089 9.44088 33803 ft 429 kts 168°
2026-05-07 14:39 52.41132 9.45192 33999 ft 430 kts 168°
2026-05-07 14:39 52.38216 9.46277 34191 ft 431 kts 167°
2026-05-07 14:39 52.35301 9.47359 34371 ft 432 kts 167°
2026-05-07 14:39 52.32340 9.48458 34559 ft 433 kts 167°
2026-05-07 14:40 52.29427 9.49537 34734 ft 434 kts 167°
2026-05-07 14:40 52.26489 9.50625 34903 ft 435 kts 167°
2026-05-07 14:40 52.23512 9.51726 35035 ft 436 kts 167°
2026-05-07 14:40 52.20591 9.52804 35042 ft 436 kts 167°
2026-05-07 14:41 52.14682 9.54979 35041 ft 436 kts 168°
2026-05-07 14:41 52.08747 9.57158 35043 ft 437 kts 168°
2026-05-07 14:42 52.02853 9.59324 35031 ft 436 kts 168°
2026-05-07 14:42 51.96927 9.61491 35041 ft 436 kts 168°
2026-05-07 14:43 51.91025 9.63641 35037 ft 436 kts 168°
2026-05-07 14:43 51.85041 9.65815 35040 ft 436 kts 168°
2026-05-07 14:44 51.79078 9.67977 35025 ft 436 kts 168°
2026-05-07 14:44 51.73141 9.70123 35025 ft 436 kts 168°
2026-05-07 14:45 51.67247 9.72248 35020 ft 436 kts 168°
2026-05-07 14:45 51.61311 9.74383 35018 ft 435 kts 168°
2026-05-07 14:46 51.55409 9.76496 35024 ft 436 kts 168°
2026-05-07 14:46 51.49464 9.78621 35020 ft 436 kts 168°
2026-05-07 14:47 51.43544 9.80732 35027 ft 436 kts 168°
2026-05-07 14:47 51.37567 9.82865 35023 ft 437 kts 168°
2026-05-07 14:48 51.31678 9.84958 35010 ft 436 kts 168°
2026-05-07 14:48 51.25695 9.86855 35012 ft 437 kts 172°
2026-05-07 14:49 51.19678 9.87690 35007 ft 436 kts 179°
2026-05-07 14:49 51.13602 9.87418 35008 ft 435 kts 184°
2026-05-07 14:50 51.07597 9.86882 35008 ft 435 kts 184°
2026-05-07 14:50 51.01553 9.86354 35014 ft 435 kts 184°
2026-05-07 14:51 50.95474 9.85826 35008 ft 435 kts 184°
2026-05-07 14:51 50.89816 9.85337 35008 ft 435 kts 184°
2026-05-07 14:52 50.83778 9.84814 35018 ft 435 kts 184°
2026-05-07 14:52 50.77596 9.84281 35015 ft 435 kts 184°
2026-05-07 14:53 50.71510 9.83756 34896 ft 436 kts 184°
2026-05-07 14:53 50.69018 9.83542 34726 ft 435 kts 184°
2026-05-07 14:53 50.65948 9.83277 34518 ft 433 kts 184°
2026-05-07 14:54 50.62971 9.83023 34317 ft 432 kts 183°
2026-05-07 14:54 50.59957 9.82767 34125 ft 430 kts 184°
2026-05-07 14:54 50.56976 9.82512 33938 ft 428 kts 184°
2026-05-07 14:54 50.54001 9.82258 33747 ft 428 kts 184°
2026-05-07 14:55 50.51022 9.82006 33555 ft 428 kts 184°
2026-05-07 14:55 50.48056 9.81755 33365 ft 428 kts 184°
2026-05-07 14:55 50.45087 9.81504 33172 ft 429 kts 184°
2026-05-07 14:55 50.42115 9.81252 32978 ft 429 kts 184°
2026-05-07 14:56 50.39162 9.81000 32789 ft 429 kts 184°
2026-05-07 14:56 50.36170 9.80746 32593 ft 429 kts 183°
2026-05-07 14:56 50.33205 9.80495 32399 ft 430 kts 184°
2026-05-07 14:56 50.30236 9.80237 32180 ft 430 kts 184°
2026-05-07 14:57 50.27222 9.79977 31953 ft 431 kts 184°
2026-05-07 14:57 50.24239 9.79721 31726 ft 431 kts 184°
2026-05-07 14:57 50.21254 9.79467 31498 ft 432 kts 184°
2026-05-07 14:57 50.18254 9.79210 31271 ft 433 kts 184°
2026-05-07 14:58 50.15234 9.78953 31011 ft 434 kts 184°
2026-05-07 14:58 50.12229 9.78701 30673 ft 435 kts 183°
2026-05-07 14:58 50.09217 9.78456 30193 ft 436 kts 183°
2026-05-07 14:58 50.06206 9.78359 29627 ft 436 kts 179°
2026-05-07 14:59 50.03168 9.78511 28989 ft 436 kts 178°
2026-05-07 14:59 50.00169 9.78709 28564 ft 431 kts 178°
2026-05-07 14:59 49.97169 9.78905 28123 ft 428 kts 178°
2026-05-07 14:59 49.94186 9.79099 27616 ft 426 kts 178°
2026-05-07 15:00 49.91239 9.79288 27018 ft 424 kts 178°
2026-05-07 15:00 49.88299 9.79476 26385 ft 423 kts 178°
2026-05-07 15:00 49.85348 9.79666 25743 ft 422 kts 178°
2026-05-07 15:00 49.82473 9.79853 25095 ft 421 kts 178°
2026-05-07 15:01 49.79481 9.80046 24428 ft 420 kts 179°
2026-05-07 15:01 49.76599 9.80230 23793 ft 419 kts 179°
2026-05-07 15:01 49.73675 9.80418 23140 ft 418 kts 179°
2026-05-07 15:01 49.70768 9.80600 22496 ft 417 kts 179°
2026-05-07 15:02 49.67887 9.80742 21855 ft 416 kts 180°
2026-05-07 15:02 49.65005 9.80868 21265 ft 413 kts 180°
2026-05-07 15:02 49.62165 9.81040 20742 ft 409 kts 178°
2026-05-07 15:02 49.59322 9.81490 20250 ft 405 kts 173°
2026-05-07 15:03 49.56588 9.82197 19790 ft 400 kts 171°
2026-05-07 15:03 49.53835 9.82962 19316 ft 395 kts 171°
2026-05-07 15:03 49.51141 9.83714 18843 ft 392 kts 171°
2026-05-07 15:03 49.48498 9.84450 18380 ft 388 kts 171°
2026-05-07 15:04 49.45843 9.85187 17925 ft 384 kts 171°
2026-05-07 15:04 49.43213 9.85916 17475 ft 380 kts 171°
2026-05-07 15:04 49.40645 9.86624 17028 ft 376 kts 171°
2026-05-07 15:04 49.38097 9.87329 16590 ft 363 kts 172°
2026-05-07 15:05 49.35651 9.88004 16173 ft 356 kts 172°
2026-05-07 15:05 49.33242 9.88666 15749 ft 351 kts 172°
2026-05-07 15:05 49.30839 9.89325 15330 ft 347 kts 172°
2026-05-07 15:05 49.28489 9.89969 14913 ft 345 kts 172°
2026-05-07 15:06 49.26107 9.90622 14499 ft 343 kts 172°
2026-05-07 15:06 49.23788 9.91257 14095 ft 340 kts 172°
2026-05-07 15:06 49.21445 9.91895 13697 ft 338 kts 173°
2026-05-07 15:06 49.19152 9.91909 13259 ft 331 kts 195°
2026-05-07 15:07 49.17056 9.90504 12836 ft 324 kts 219°
2026-05-07 15:07 49.15538 9.88093 12414 ft 319 kts 240°
2026-05-07 15:07 49.14597 9.85045 11975 ft 318 kts 249°
2026-05-07 15:07 49.13498 9.82115 11444 ft 322 kts 236°
2026-05-07 15:08 49.12125 9.79377 10864 ft 326 kts 234°
2026-05-07 15:08 49.10757 9.76669 10453 ft 321 kts 235°
2026-05-07 15:08 49.09438 9.73958 10190 ft 312 kts 236°
2026-05-07 15:08 49.08203 9.71336 10067 ft 299 kts 237°
2026-05-07 15:09 49.07023 9.68783 9869 ft 290 kts 237°
2026-05-07 15:09 49.05886 9.66290 9583 ft 284 kts 237°
2026-05-07 15:09 49.04780 9.63847 9283 ft 279 kts 238°
2026-05-07 15:09 49.03685 9.61419 8968 ft 274 kts 238°
2026-05-07 15:10 49.02615 9.59041 8663 ft 270 kts 238°
2026-05-07 15:10 49.01569 9.56719 8373 ft 266 kts 238°
2026-05-07 15:10 49.00539 9.54428 8083 ft 262 kts 238°
2026-05-07 15:10 48.99514 9.52153 7781 ft 256 kts 238°
2026-05-07 15:11 48.98515 9.49937 7384 ft 248 kts 238°
2026-05-07 15:11 48.97552 9.47805 6916 ft 245 kts 238°
2026-05-07 15:11 48.96607 9.45711 6525 ft 239 kts 238°
2026-05-07 15:11 48.95673 9.43645 6142 ft 229 kts 238°
2026-05-07 15:12 48.94794 9.41703 5895 ft 220 kts 238°
2026-05-07 15:12 48.93941 9.39819 5635 ft 211 kts 238°
2026-05-07 15:12 48.93088 9.38079 5369 ft 202 kts 226°
2026-05-07 15:12 48.91951 9.36912 5114 ft 196 kts 204°
2026-05-07 15:13 48.90619 9.36486 5116 ft 198 kts 185°
2026-05-07 15:13 48.89242 9.36800 5026 ft 201 kts 163°
2026-05-07 15:13 48.88028 9.37837 5003 ft 202 kts 144°
2026-05-07 15:13 48.86918 9.39188 4986 ft 202 kts 141°
2026-05-07 15:14 48.85835 9.40566 4979 ft 201 kts 141°
2026-05-07 15:14 48.84765 9.41915 4924 ft 198 kts 141°
2026-05-07 15:14 48.83706 9.43229 4625 ft 196 kts 142°
2026-05-07 15:14 48.82642 9.44535 4159 ft 195 kts 141°
2026-05-07 15:15 48.81588 9.45824 3987 ft 197 kts 141°
2026-05-07 15:15 48.80501 9.47151 3989 ft 199 kts 142°
2026-05-07 15:15 48.79419 9.48469 3985 ft 199 kts 142°
2026-05-07 15:15 48.78345 9.49775 3984 ft 199 kts 142°
2026-05-07 15:16 48.77163 9.50785 3956 ft 191 kts 168°
2026-05-07 15:16 48.75938 9.50773 3941 ft 161 kts 198°
2026-05-07 15:16 48.74988 9.50106 3934 ft 146 kts 221°
2026-05-07 15:16 48.74328 9.48966 3960 ft 142 kts 243°
2026-05-07 15:17 48.73894 9.47636 3973 ft 141 kts 252°
2026-05-07 15:17 48.73566 9.46234 3976 ft 140 kts 257°
2026-05-07 15:17 48.73293 9.44808 3880 ft 140 kts 258°
2026-05-07 15:17 48.73043 9.43391 3680 ft 139 kts 259°
2026-05-07 15:18 48.72780 9.41967 3491 ft 139 kts 257°
2026-05-07 15:18 48.72496 9.40565 3328 ft 139 kts 257°
2026-05-07 15:18 48.72222 9.39172 3139 ft 138 kts 258°
2026-05-07 15:18 48.71963 9.37761 2942 ft 138 kts 258°
2026-05-07 15:19 48.71692 9.36364 2753 ft 137 kts 257°
2026-05-07 15:19 48.71422 9.34994 2560 ft 135 kts 256°
2026-05-07 15:19 48.71151 9.33614 2393 ft 136 kts 257°
2026-05-07 15:19 48.70884 9.32262 2202 ft 135 kts 257°
2026-05-07 15:20 48.70620 9.30836 2083 ft 140 kts 257°
2026-05-07 15:20 48.70365 9.29453 1849 ft 132 kts 256°
2026-05-07 15:20 48.70101 9.28137 1688 ft 135 kts 256°
2026-05-07 15:20 48.69835 9.26735 1536 ft 140 kts 258°
2026-05-07 15:21 48.69572 9.25306 1365 ft 141 kts 257°
2026-05-07 15:21 48.69315 9.23924 1187 ft 126 kts 255°
2026-05-07 15:21 48.69116 9.22884 1211 ft 77 kts 256°
2026-05-07 15:21 48.69003 9.22271 1227 ft 52 kts 254°
2026-05-07 15:22 48.68942 9.21799 1240 ft 32 kts 272°
2026-05-07 15:22 48.68974 9.21552 1245 ft 16 kts 284°
2026-05-07 15:22 48.68983 9.21491 1246 ft 0 kts 283°
2026-05-07 15:24 48.68984 9.21487 1246 ft 2 kts 283°
2026-05-07 15:24 48.68995 9.21422 1247 ft 8 kts 283°
2026-05-07 15:24 48.69000 9.21343 1249 ft 6 kts 268°
2026-05-07 15:25 48.68990 9.21278 1250 ft 5 kts 253°
2026-05-07 15:25 48.68976 9.21207 1251 ft 8 kts 253°
2026-05-07 15:25 48.68960 9.21122 1252 ft 8 kts 255°
2026-05-07 15:25 48.68944 9.21038 1254 ft 9 kts 253°
2026-05-07 15:26 48.68919 9.20910 1259 ft 14 kts 253°
2026-05-07 15:26 48.68891 9.20758 1263 ft 21 kts 253°
2026-05-07 15:26 48.68852 9.20550 1270 ft 18 kts 255°
2026-05-07 15:26 48.68820 9.20383 1276 ft 14 kts 254°
2026-05-07 15:27 48.68797 9.20262 1280 ft 9 kts 252°
2026-05-07 15:27 48.68781 9.20182 1283 ft 7 kts 254°
2026-05-07 15:27 48.68762 9.20078 1287 ft 11 kts 254°
2026-05-07 15:27 48.68774 9.19979 1290 ft 8 kts 311°
2026-05-07 15:28 48.68802 9.19939 1292 ft 3 kts 319°
2026-05-07 15:28 48.68840 9.19896 1296 ft 13 kts 332°
2026-05-07 15:28 48.68892 9.19840 1300 ft 6 kts 281°
2026-05-07 15:28 48.68886 9.19792 1302 ft 2 kts 254°
2026-05-07 15:29 48.68882 9.19767 1302 ft 4 kts 271°
2026-05-07 15:29 48.68890 9.19745 1304 ft 3 kts 318°
2026-05-07 15:29 48.68920 9.19730 1305 ft 3 kts 345°
2026-05-07 15:29 48.68930 9.19726 1306 ft 0 kts 345°
2026-05-07 15:30 48.68946 9.19719 1307 ft 3 kts 343°
2026-05-07 15:30 48.68954 9.19716 1307 ft 0 kts 343°